Time,TemperatureF,DewpointF,PressureIn,WindDirection,WindDirectionDegrees,WindSpeedMPH,WindSpeedGustMPH,Humidity,HourlyPrecipIn,Conditions,Clouds,dailyrainin,SoftwareType,DateUTC
2014-04-17 00:04:00,33.6,27.0,30.59,NNE,19,0.0,0.0,76,0.00,,,1.32,weatherlink.com 1.10,2014-04-17 04:04:00,
2014-04-17 00:19:00,33.3,27.0,30.59,NNE,19,0.0,0.0,78,0.00,,,0.00,weatherlink.com 1.10,2014-04-17 04:19:00,
2014-04-17 00:34:00,32.9,27.0,30.60,NNE,19,0.0,0.0,79,0.00,,,0.00,weatherlink.com 1.10,2014-04-17 04:34:00,
2014-04-17 00:49:00,32.5,27.0,30.60,NNE,19,0.0,0.0,81,0.00,,,0.00,weatherlink.com 1.10,2014-04-17 04:49:00,
2014-04-17 01:04:00,32.1,27.0,30.60,NNE,18,0.0,0.0,82,0.00,,,0.00,weatherlink.com 1.10,2014-04-17 05:04:00,
2014-04-17 01:19:00,31.8,27.0,30.60,NNE,19,0.0,0.0,82,0.00,,,0.00,weatherlink.com 1.10,2014-04-17 05:19:00,
2014-04-17 01:34:00,31.4,27.0,30.60,NNE,19,0.0,0.0,83,0.00,,,0.00,weatherlink.com 1.10,2014-04-17 05:34:00,
2014-04-17 01:50:00,31.1,27.0,30.61,NNE,19,0.0,0.0,83,0.00,,,0.00,weatherlink.com 1.10,2014-04-17 05:50:00,
2014-04-17 02:05:00,30.9,27.0,30.61,NNE,18,0.0,0.0,84,0.00,,,0.00,weatherlink.com 1.10,2014-04-17 06:05:00,
2014-04-17 02:20:00,30.7,27.0,30.60,NNE,18,0.0,0.0,85,0.00,,,0.00,weatherlink.com 1.10,2014-04-17 06:20:00,
2014-04-17 02:35:00,30.7,27.0,30.61,NNE,19,0.0,0.0,85,0.00,,,0.00,weatherlink.com 1.10,2014-04-17 06:35:00,
2014-04-17 02:50:00,30.7,27.0,30.61,NNE,18,0.0,0.0,86,0.00,,,0.00,weatherlink.com 1.10,2014-04-17 06:50:00,
2014-04-17 03:05:00,30.7,27.0,30.60,NNE,19,0.0,0.0,86,0.00,,,0.00,weatherlink.com 1.10,2014-04-17 07:05:00,
2014-04-17 03:20:00,30.7,27.0,30.60,NNE,19,0.0,0.0,86,0.00,,,0.00,weatherlink.com 1.10,2014-04-17 07:20:00,
2014-04-17 03:35:00,30.6,27.0,30.60,NNE,19,0.0,0.0,86,0.00,,,0.00,weatherlink.com 1.10,2014-04-17 07:35:00,
2014-04-17 03:50:00,30.5,27.0,30.60,NNE,18,0.0,0.0,86,0.00,,,0.00,weatherlink.com 1.10,2014-04-17 07:50:00,
2014-04-17 04:05:00,30.5,27.0,30.61,NNE,19,0.0,0.0,86,0.00,,,0.00,weatherlink.com 1.10,2014-04-17 08:05:00,
2014-04-17 04:20:00,30.6,27.0,30.61,NNE,19,0.0,0.0,85,0.00,,,0.00,weatherlink.com 1.10,2014-04-17 08:20:00,
2014-04-17 04:35:00,30.7,26.0,30.62,NNE,19,0.0,0.0,84,0.00,,,0.00,weatherlink.com 1.10,2014-04-17 08:35:00,
2014-04-17 04:50:00,30.6,26.0,30.62,NNE,19,0.0,0.0,84,0.00,,,0.00,weatherlink.com 1.10,2014-04-17 08:50:00,
2014-04-17 05:05:00,30.5,26.0,30.62,NNE,19,0.0,0.0,83,0.00,,,0.00,weatherlink.com 1.10,2014-04-17 09:05:00,
2014-04-17 05:20:00,30.3,26.0,30.63,NNE,19,0.0,0.0,83,0.00,,,0.00,weatherlink.com 1.10,2014-04-17 09:20:00,
2014-04-17 05:35:00,30.2,26.0,30.63,NNE,19,0.0,0.0,84,0.00,,,0.00,weatherlink.com 1.10,2014-04-17 09:35:00,
2014-04-17 05:50:00,30.1,26.0,30.64,NNE,19,0.0,0.0,85,0.00,,,0.00,weatherlink.com 1.10,2014-04-17 09:50:00,
2014-04-17 06:05:00,30.1,26.0,30.64,NNE,19,0.0,0.0,85,0.00,,,0.00,weatherlink.com 1.10,2014-04-17 10:05:00,
2014-04-17 06:20:00,29.9,26.0,30.65,NNE,19,0.0,0.0,85,0.00,,,0.00,weatherlink.com 1.10,2014-04-17 10:20:00,
2014-04-17 06:35:00,29.8,26.0,30.66,NNE,19,0.0,0.0,86,0.00,,,0.00,weatherlink.com 1.10,2014-04-17 10:35:00,
2014-04-17 06:50:00,29.8,26.0,30.66,NNE,19,0.0,0.0,86,0.00,,,0.00,weatherlink.com 1.10,2014-04-17 10:50:00,
2014-04-17 07:05:00,30.0,27.0,30.67,NNE,19,0.0,0.0,87,0.00,,,0.00,weatherlink.com 1.10,2014-04-17 11:05:00,
2014-04-17 07:20:00,30.6,27.0,30.68,NNE,19,0.0,0.0,87,0.00,,,0.00,weatherlink.com 1.10,2014-04-17 11:20:00,
2014-04-17 07:35:00,32.0,29.0,30.68,NNE,19,0.0,0.0,87,0.00,,,0.00,weatherlink.com 1.10,2014-04-17 11:35:00,
2014-04-17 07:50:00,34.6,29.0,30.69,NNE,19,0.0,1.0,80,0.00,,,0.00,weatherlink.com 1.10,2014-04-17 11:50:00,
2014-04-17 08:05:00,37.0,29.0,30.69,NE,50,0.0,3.0,73,0.00,,,0.00,weatherlink.com 1.10,2014-04-17 12:05:00,
2014-04-17 08:20:00,39.2,29.0,30.69,NE,52,0.0,7.0,68,0.00,,,0.00,weatherlink.com 1.10,2014-04-17 12:20:00,
2014-04-17 08:35:00,40.9,30.0,30.69,NE,38,1.0,7.0,65,0.00,,,0.00,weatherlink.com 1.10,2014-04-17 12:35:00,
2014-04-17 08:51:00,42.6,31.0,30.69,ENE,64,5.0,12.0,63,0.00,,,0.00,weatherlink.com 1.10,2014-04-17 12:51:00,
2014-04-17 09:06:00,43.5,32.0,30.70,SSE,148,1.0,9.0,63,0.00,,,0.00,weatherlink.com 1.10,2014-04-17 13:06:00,
2014-04-17 09:21:00,44.0,31.0,30.70,North,9,1.0,13.0,61,0.00,,,0.00,weatherlink.com 1.10,2014-04-17 13:21:00,
2014-04-17 09:36:00,44.5,30.0,30.70,ESE,122,7.0,12.0,58,0.00,,,0.00,weatherlink.com 1.10,2014-04-17 13:36:00,
2014-04-17 09:51:00,44.7,30.0,30.70,SSE,150,3.0,16.0,56,0.00,,,0.00,weatherlink.com 1.10,2014-04-17 13:51:00,
2014-04-17 10:06:00,45.6,29.0,30.71,ESE,102,2.0,13.0,53,0.00,,,0.00,weatherlink.com 1.10,2014-04-17 14:06:00,
2014-04-17 10:21:00,46.6,30.0,30.71,SE,142,1.0,15.0,52,0.00,,,0.00,weatherlink.com 1.10,2014-04-17 14:21:00,
2014-04-17 10:36:00,46.7,29.0,30.71,ENE,76,8.0,14.0,51,0.00,,,0.00,weatherlink.com 1.10,2014-04-17 14:36:00,
2014-04-17 10:51:00,47.3,30.0,30.71,East,98,5.0,14.0,52,0.00,,,0.00,weatherlink.com 1.10,2014-04-17 14:51:00,
2014-04-17 11:06:00,47.5,30.0,30.71,SSE,164,4.0,15.0,52,0.00,,,0.00,weatherlink.com 1.10,2014-04-17 15:06:00,
2014-04-17 11:21:00,47.7,32.0,30.71,East,89,9.0,16.0,56,0.00,,,0.00,weatherlink.com 1.10,2014-04-17 15:21:00,
2014-04-17 11:36:00,47.4,33.0,30.70,SE,127,6.0,14.0,57,0.00,,,0.00,weatherlink.com 1.10,2014-04-17 15:36:00,
2014-04-17 11:51:00,47.3,33.0,30.70,SE,140,4.0,15.0,57,0.00,,,0.00,weatherlink.com 1.10,2014-04-17 15:51:00,
2014-04-17 12:06:00,47.9,33.0,30.70,SE,137,3.0,9.0,57,0.00,,,0.00,weatherlink.com 1.10,2014-04-17 16:06:00,
2014-04-17 12:21:00,48.1,32.0,30.69,SE,144,4.0,16.0,55,0.00,,,0.00,weatherlink.com 1.10,2014-04-17 16:21:00,
2014-04-17 12:36:00,48.6,33.0,30.68,ESE,123,6.0,15.0,55,0.00,,,0.00,weatherlink.com 1.10,2014-04-17 16:36:00,
2014-04-17 12:51:00,49.0,35.0,30.68,ENE,69,5.0,14.0,58,0.00,,,0.00,weatherlink.com 1.10,2014-04-17 16:51:00,
2014-04-17 13:06:00,49.5,34.0,30.68,NE,54,4.0,15.0,55,0.00,,,0.00,weatherlink.com 1.10,2014-04-17 17:06:00,
2014-04-17 13:21:00,48.9,33.0,30.67,East,85,7.0,14.0,54,0.00,,,0.00,weatherlink.com 1.10,2014-04-17 17:21:00,
2014-04-17 13:36:00,49.5,34.0,30.67,East,92,4.0,13.0,56,0.00,,,0.00,weatherlink.com 1.10,2014-04-17 17:36:00,
2014-04-17 13:51:00,49.9,33.0,30.67,SE,142,1.0,10.0,53,0.00,,,0.00,weatherlink.com 1.10,2014-04-17 17:51:00,
2014-04-17 14:07:00,49.9,33.0,30.66,ESE,102,7.0,13.0,53,0.00,,,0.00,weatherlink.com 1.10,2014-04-17 18:07:00,
2014-04-17 14:21:00,50.4,33.0,30.66,East,90,5.0,8.0,52,0.00,,,0.00,weatherlink.com 1.10,2014-04-17 18:21:00,
2014-04-17 14:36:00,50.5,35.0,30.66,East,92,9.0,16.0,55,0.00,,,0.00,weatherlink.com 1.10,2014-04-17 18:36:00,
2014-04-17 14:52:00,51.2,34.0,30.65,ESE,109,7.0,12.0,52,0.00,,,0.00,weatherlink.com 1.10,2014-04-17 18:52:00,
2014-04-17 15:07:00,50.9,34.0,30.64,East,88,7.0,15.0,52,0.00,,,0.00,weatherlink.com 1.10,2014-04-17 19:07:00,
2014-04-17 15:22:00,50.5,33.0,30.64,East,97,8.0,13.0,52,0.00,,,0.00,weatherlink.com 1.10,2014-04-17 19:22:00,
2014-04-17 15:37:00,50.9,35.0,30.63,ESE,102,5.0,12.0,55,0.00,,,0.00,weatherlink.com 1.10,2014-04-17 19:37:00,
2014-04-17 15:52:00,50.9,34.0,30.62,NNE,19,6.0,14.0,52,0.00,,,0.00,weatherlink.com 1.10,2014-04-17 19:52:00,
2014-04-17 16:07:00,51.3,34.0,30.62,East,79,10.0,14.0,53,0.00,,,0.00,weatherlink.com 1.10,2014-04-17 20:07:00,
2014-04-17 16:22:00,50.7,34.0,30.62,SE,124,2.0,14.0,53,0.00,,,0.00,weatherlink.com 1.10,2014-04-17 20:22:00,
2014-04-17 16:37:00,50.4,34.0,30.62,SSE,150,3.0,12.0,53,0.00,,,0.00,weatherlink.com 1.10,2014-04-17 20:37:00,